GW0787 Weather Reports


Display with metric or nautical units.
time (UTC)temp
F
wind
direction
speed
MPH
gust
MPH
rain 1hr
in
rain 24hr
in
rain mn
in
humidity
%
barometer
mb
20260901204552 76 68 1.0 3.0 0.00 0.00 0.00 41 1005.3
20260901203053 76 314 0.0 4.0 0.00 0.00 0.00 49 1005.5
20260901201546 76 338 0.0 2.0 0.00 0.00 0.00 53 1005.6
20260901200055 76 280 0.0 2.0 0.00 0.00 0.00 51 1005.7
20260901194559 75 277 0.0 1.0 0.00 0.00 0.00 47 1005.9
20260901193039 75 276 0.0 3.0 0.00 0.00 0.00 49 1006.1
20260901191535 74 276 1.0 3.0 0.00 0.00 0.00 46 1006.3
20260901190034 72 104 1.0 3.0 0.00 0.00 0.00 47 1006.6
20260901184526 71 86 0.0 3.0 0.00 0.00 0.00 50 1006.9
20260901183036 69 43 0.0 3.0 0.00 0.00 0.00 52 1007.3
20260901181518 68 106 0.0 2.0 0.00 0.00 0.00 53 1007.4
20260901180013 67 93 0.0 2.0 0.00 0.00 0.00 56 1007.6
20260901174511 64 79 0.0 1.0 0.00 0.00 0.00 62 1007.9
20260901173005 63 44 0.0 1.0 0.00 0.00 0.00 62 1008.0
20260901171620 61 343 0.0 4.0 0.00 0.00 0.00 67 1008.2
20260901164607 56 218 0.0 0.0 0.00 0.00 0.00 78 1008.6
20260901163047 53 218 0.0 0.0 0.00 0.00 0.00 86 1008.8
20260901161543 52 218 0.0 0.0 0.00 0.00 0.00 86 1009.0
20260901160045 50 218 0.0 0.0 0.00 0.00 0.00 86 1009.3
20260901154542 49 218 0.0 0.0 0.00 0.00 0.00 87 1009.4
20260901153041 48 218 0.0 0.0 0.00 0.00 0.00 88 1009.5
20260901151538 47 218 0.0 0.0 0.00 0.00 0.00 89 1009.5
20260901150038 46 218 0.0 0.0 0.00 0.00 0.00 90 1009.6
20260901144539 46 218 0.0 0.0 0.00 0.00 0.00 90 1009.7
20260901143041 45 218 0.0 0.0 0.00 0.00 0.00 90 1009.7
20260901141550 44 218 0.0 0.0 0.00 0.00 0.00 90 1009.8
20260901140036 44 218 0.0 0.0 0.00 0.00 0.00 90 1009.7
20260901134536 43 218 0.0 0.0 0.00 0.00 0.00 90 1009.5
20260901133039 43 218 0.0 0.0 0.00 0.00 0.00 89 1009.4
20260901131534 43 218 0.0 0.0 0.00 0.00 0.00 89 1009.5
20260901130030 44 218 0.0 0.0 0.00 0.00 0.00 89 1009.4
20260901124528 44 218 0.0 0.0 0.00 0.00 0.00 89 1009.4
20260901123026 44 218 0.0 0.0 0.00 0.00 0.00 88 1009.5
20260901121524 44 218 0.0 0.0 0.00 0.00 0.00 88 1009.6
20260901120022 45 218 0.0 0.0 0.00 0.00 0.00 88 1009.6
20260901114520 45 218 0.0 0.0 0.00 0.00 0.00 88 1009.7
20260901113020 45 218 0.0 0.0 0.00 0.00 0.00 88 1009.7
20260901111517 45 218 0.0 0.0 0.00 0.00 0.00 88 1009.7
20260901110032 46 218 0.0 0.0 0.00 0.00 0.00 88 1009.7
20260901104513 46 218 0.0 0.0 0.00 0.00 0.00 87 1009.8
20260901103011 46 218 0.0 0.0 0.00 0.00 0.00 87 1009.9
20260901101509 46 218 0.0 0.0 0.00 0.00 0.00 87 1010.1
20260901100007 47 218 0.0 0.0 0.00 0.00 0.00 87 1010.0
20260901094503 47 218 0.0 0.0 0.00 0.00 0.00 86 1010.1
20260901093002 47 218 0.0 0.0 0.00 0.00 0.00 86 1010.2
20260901091606 47 218 0.0 0.0 0.00 0.00 0.00 86 1010.3
20260901090057 48 218 0.0 0.0 0.00 0.00 0.00 85 1010.3
20260901084555 48 218 0.0 0.0 0.00 0.00 0.00 84 1010.3
20260901083052 49 218 0.0 0.0 0.00 0.00 0.00 83 1010.3
20260901081550 49 218 0.0 0.0 0.00 0.00 0.00 83 1010.3
20260901080049 50 218 0.0 0.0 0.00 0.00 0.00 83 1010.2
20260901074546 50 218 0.0 0.0 0.00 0.00 0.00 82 1010.2
20260901073043 51 218 0.0 0.0 0.00 0.00 0.00 81 1010.2
20260901071542 51 218 0.0 0.0 0.00 0.00 0.00 81 1010.2
20260901070041 51 218 0.0 0.0 0.00 0.00 0.00 81 1010.3
20260901064540 52 218 0.0 0.0 0.00 0.00 0.00 82 1010.3
20260901063040 52 218 0.0 0.0 0.00 0.00 0.00 79 1010.4
20260901061537 53 218 0.0 0.0 0.00 0.00 0.00 78 1010.5
20260901060036 53 218 0.0 0.0 0.00 0.00 0.00 77 1010.5
20260901054536 54 218 0.0 0.0 0.00 0.00 0.00 75 1010.4
20260901053038 55 218 0.0 0.0 0.00 0.00 0.00 75 1010.5
20260901051537 55 218 0.0 0.0 0.00 0.00 0.00 75 1010.6
20260901050034 56 218 0.0 0.0 0.00 0.00 0.00 74 1010.6
20260901044533 57 218 0.0 0.0 0.00 0.00 0.00 70 1010.5
20260901043042 58 218 0.0 1.0 0.00 0.00 0.00 69 1010.5
20260901041532 59 218 0.0 1.0 0.00 0.00 0.00 69 1010.4
20260901040036 60 218 0.0 0.0 0.00 0.00 0.00 69 1010.3
20260901034533 61 218 0.0 0.0 0.00 0.00 0.00 67 1010.2
20260901033048 62 218 0.0 2.0 0.00 0.00 0.00 66 1009.9
20260901031531 63 218 0.0 2.0 0.00 0.00 0.00 65 1009.7
20260901030030 65 218 0.0 2.0 0.00 0.00 0.00 63 1009.6
20260901024529 66 218 0.0 3.0 0.00 0.00 0.00 62 1009.5
20260901023033 68 218 0.0 0.0 0.00 0.00 0.00 58 1009.4
20260901021528 70 218 0.0 2.0 0.00 0.00 0.00 54 1009.6
20260901020027 73 218 0.0 3.0 0.00 0.00 0.00 48 1009.7
20260901014525 76 221 0.0 2.0 0.00 0.00 0.00 43 1009.7
20260901013025 77 210 0.0 5.0 0.00 0.00 0.00 38 1009.7
20260901011524 80 221 3.0 7.0 0.00 0.00 0.00 35 1009.8
20260901010024 81 234 2.0 8.0 0.00 0.00 0.00 32 1009.8
20260901004520 82 237 2.0 9.0 0.00 0.00 0.00 32 1009.9
20260901003018 82 239 3.0 8.0 0.00 0.00 0.00 33 1010.0
20260901001517 81 211 1.0 8.0 0.00 0.00 0.00 32 1010.1
20260901000009 81 220 5.0 13.0 0.00 0.00 0.00 31 1010.2
20260831234522 81 234 4.0 11.0 0.00 0.00 0.00 33 1010.4
20260831233005 82 191 3.0 7.0 0.00 0.00 0.00 33 1010.5
20260831231502 81 234 4.0 9.0 0.00 0.00 0.00 32 1010.8
20260831230106 81 188 3.0 9.0 0.00 0.00 0.00 32 1011.0
20260831224557 82 245 1.0 9.0 0.00 0.00 0.00 35 1011.2
20260831223055 82 224 1.0 6.0 0.00 0.00 0.00 34 1011.4
20260831221550 80 306 1.0 6.0 0.00 0.00 0.00 33 1011.5
20260831220056 80 336 1.0 10.0 0.00 0.00 0.00 35 1011.8
20260831214548 79 222 2.0 9.0 0.00 0.00 0.00 33 1012.0
20260831213046 79 232 3.0 7.0 0.00 0.00 0.00 37 1012.3
20260831211539 77 224 4.0 7.0 0.00 0.00 0.00 38 1012.6
20260831210039 76 214 0.0 8.0 0.00 0.00 0.00 39 1012.9